Hourly Data Report for September 26, 2003

TORONTO CITY
ONTARIO

43°40'00.000" N
79°24'00.000" W
112.50 m
6158355
71508
XTO

Download Data

Hourly Data (September 2003)
Hourly Data Report for September 26, 2003
TIME
LST
Temp Definition
°C
Dew Point Definition
°C
Rel Hum Definition
%
Precip. Amount Definition
mm

Wind Dir Definition
10's deg

Wind Spd Definition
km/h
Visibility Definition
km
Stn Press Definition
kPa
Hmdx Definition


Wind Chill Definition


Weather Definition


00:00 10.2 5.9 75   LegendMM LegendMM LegendMM 100.25     LegendNANA
01:00 9.7 6.1 78   LegendMM LegendMM LegendMM 100.30     LegendNANA
02:00 9.8 6.2 78   LegendMM LegendMM LegendMM 100.29     LegendNANA
03:00 10.5 6.6 77   LegendMM LegendMM LegendMM 100.28     LegendNANA
04:00 10.2 6.8 79   LegendMM LegendMM LegendMM 100.33     LegendNANA
05:00 10.5 6.5 76   LegendMM LegendMM LegendMM 100.33     LegendNANA
06:00 10.4 6.0 74   LegendMM LegendMM LegendMM 100.31     LegendNANA
07:00 11.2 7.0 75   LegendMM LegendMM LegendMM 100.31     LegendNANA
08:00 12.4 8.0 75   LegendMM LegendMM LegendMM 100.28     LegendNANA
09:00 14.7 9.6 71   LegendMM LegendMM LegendMM 100.27     LegendNANA
10:00 15.4 9.2 67   LegendMM LegendMM LegendMM 100.24     LegendNANA
11:00 16.9 9.7 63   LegendMM LegendMM LegendMM 100.21     LegendNANA
12:00 17.7 10.0 61   LegendMM LegendMM LegendMM 100.15     LegendNANA
13:00 18.5 9.5 56   LegendMM LegendMM LegendMM 100.05     LegendNANA
14:00 16.9 8.5 58   LegendMM LegendMM LegendMM 100.00     LegendNANA
15:00 16.8 9.2 61   LegendMM LegendMM LegendMM 99.95     LegendNANA
16:00 16.3 9.7 65   LegendMM LegendMM LegendMM 99.91     LegendNANA
17:00 16.3 9.7 65   LegendMM LegendMM LegendMM 99.80     LegendNANA
18:00 16.3 11.6 74   LegendMM LegendMM LegendMM 99.74     LegendNANA
19:00 16.2 12.9 81   LegendMM LegendMM LegendMM 99.68     LegendNANA
20:00 16.5 13.5 82   LegendMM LegendMM LegendMM 99.57     LegendNANA
21:00 16.5 13.9 85   LegendMM LegendMM LegendMM 99.46     LegendNANA
22:00 16.8 13.7 82   LegendMM LegendMM LegendMM 99.36     LegendNANA
23:00 16.9 13.7 81   LegendMM LegendMM LegendMM 99.27     LegendNANA

Notes on Data Quality.

Legend

  • E = Estimated
  • M = Missing
  • NA = Not Available*
  • [empty] = Indicates an unobserved value
Date modified: